Location: Veytaux
(46.4185°N, 6.9320°E)
Time: 08:20:36
(UTC+00:00)

Cosmos 1980 - Visible Passes

Search period start: 06 October 2022 00:00
Search period end: 16 October 2022 00:00
Orbit: 837 x 848 km, 71.0° (Epoch: 05 October)

Date Brightness Start Highest point End Pass type
(mag) Time Alt. Az. Time Alt. Az. Time Alt. Az.
06 Oct 6.5 03:54:01 10° NNE 03:55:32 11° NNE 03:57:03 10° NE visible
07 Oct 6.6 03:39:34 10° NNE 03:40:48 11° NNE 03:42:02 10° NE visible
08 Oct 6.6 03:25:12 10° NNE 03:26:04 10° NNE 03:26:56 10° NE visible
08 Oct 5.1 05:06:30 10° NNW 05:11:52 40° NE 05:17:10 10° ESE visible
09 Oct 5.2 04:51:51 10° NNW 04:57:10 38° NE 05:02:27 10° ESE visible
10 Oct 5.2 04:37:12 10° NNW 04:42:29 37° NE 04:47:42 10° ESE visible
11 Oct 5.3 04:22:33 10° NNW 04:27:47 36° NE 04:32:58 10° ESE visible
12 Oct 5.3 04:07:54 10° NNW 04:13:05 35° NE 04:18:14 10° ESE visible
13 Oct 5.4 03:53:15 10° NNW 03:58:23 33° NE 04:03:29 10° ESE visible
13 Oct 5.1 18:47:36 10° S 18:49:37 21° SSE 18:49:37 21° SSE visible
13 Oct 6.3 20:31:32 10° WSW 20:31:38 10° WSW 20:31:38 10° WSW visible
14 Oct 5.4 03:38:36 10° NNW 03:43:41 32° NE 03:48:44 10° ESE visible
14 Oct 4.2 18:33:00 10° S 18:37:45 36° ESE 18:37:45 36° ESE visible
14 Oct 5.3 20:16:48 10° SW 20:19:46 28° WSW 20:19:46 28° WSW visible
15 Oct 5.4 03:23:56 10° NNW 03:28:59 31° NE 03:33:59 10° ESE visible
15 Oct 3.9 05:07:49 10° NW 05:13:18 49° WSW 05:18:42 10° S visible
15 Oct 4.2 18:18:24 10° SSE 18:23:28 34° ESE 18:25:53 24° ENE visible
15 Oct 4.8 20:02:04 10° SW 20:07:26 42° NW 20:07:53 41° NW visible
15 Oct6.821:58:42NNE21:58:42NNE21:49:54WNWvisible
